Regional Weather Roundup
Issued by NWS

Home | Current Version | Previous Version | Graphics & Text | Print | Product List | Glossary Off
Versions: 1 2 3 4 5 6 7 8 9 10 11 12 13 14 15 16 17 18 19 20 21 22 23 24 25 26 27

000
ASUS45 KCYS 152210
RWRWY

WYOMING REGIONAL WEATHER ROUNDUP
NATIONAL WEATHER SERVICE CHEYENNE WY
300 PM MST FRI DEC 15 2017

NOTE:  "FAIR" INDICATES FEW OR NO CLOUDS BELOW 12,000 FEET
WITH NO SIGNIFICANT WEATHER AND/OR OBSTRUCTIONS TO VISIBILITY.

WYZ001-152300-
YELLOWSTONE NATIONAL PARK

CITY           SKY/WX    TMP DP  RH WIND       PRES   REMARKS
LK YELLOWSTONE   N/A     26  21  81 CALM      30.06F
W YELLOWSTONE  NOT AVBL

$$
WYZ002>013-054>058-071-098>099-152300-
NORTHERN WYOMING

CITY           SKY/WX    TMP DP  RH WIND       PRES   REMARKS
JACKSON        FAIR      29  17  61 CALM      30.09F
CODY           FAIR      51  11  20 W24G35    29.82F
GREYBULL       FAIR      37  17  44 VRB3      29.83F
WORLAND        FAIR      37  23  56 CALM      29.84F
SHERIDAN       FAIR      44  26  49 CALM      29.70F
BUFFALO        FAIR      52  12  20 SE5       29.74F
GILLETTE       FAIR      49  18  29 SW14      29.73F
HULETT         FAIR      46  21  36 SW10      29.73F
NEWCASTLE      FAIR      45  21  39 NW5       29.77F

$$
WYZ014>020-022>026-101>103-152300-
CENTRAL WYOMING

CITY           SKY/WX    TMP DP  RH WIND       PRES   REMARKS
BIG PINEY      FAIR      37  12  35 S5        30.05F WCI  33
PINEDALE       FAIR      37  16  41 NW9       30.05F WCI  31
DUBOIS         FAIR      37   9  30 N31G41    29.91F WCI  25
LANDER         FAIR      29  23  78 S7        29.89F WCI  22
RIVERTON       FAIR      30  19  63 N3        29.89F
CASPER         FAIR      41  19  41 SW28G41   29.87F
DOUGLAS        FAIR      49  18  29 W8        29.83R

$$
WYZ021-027>030-104>119-152300-
SOUTHERN WYOMING

CITY           SKY/WX    TMP DP  RH WIND       PRES   REMARKS
EVANSTON       FAIR      43   3  19 SW17      30.10F
FORT BRIDGER   FAIR      46  -3  13 W21G28    30.11F
ROCK SPRINGS   FAIR      44   0  16 W25       30.05F
DIXON          FAIR      40  12  32 SW13G20   30.15F WCI  32
RAWLINS        FAIR      39  17  41 SW14G20   30.02F WCI  31
SARATOGA       FAIR      37  19  48 CALM      30.06S
LARAMIE        FAIR      39  18  42 SW18      29.96F WCI  30
CHEYENNE       FAIR      50  10  20 W17       29.90F
TORRINGTON     FAIR      56  16  20 W14G22    29.80F
PINE BLUFFS    FAIR      54  12  19 W24G38    29.87F

$$




USA.gov is the U.S. government's official web portal to all federal, state and local government web resources and services.